Welcome to the New NWS' Forecast!
Most changes are behind the scenes, but click here for differences you might notice.

Regional Weather Roundup (RWR)

Issued by National Weather Service (NWS)

                            
563 
ASUS43 KFSD 150502
RWRSD 

WEATHER ROUNDUP FOR SOUTH DAKOTA
NATIONAL WEATHER SERVICE SIOUX FALLS SD
1200 AM CDT WED AUG 15 2018

NOTE: "FAIR" INDICATES FEW OR NO CLOUDS BELOW 12,000 FEET WITH NO
SIGNIFICANT WEATHER AND/OR OBSTRUCTIONS TO VISIBILITY.


SDZ001>005-009-010-012>017-150600-
NORTHWEST AND NORTH CENTRAL SOUTH DAKOTA
  
CITY           SKY/WX    TMP DP  RH WIND       PRES   REMARKS
BUFFALO          N/A     63  53  70 SE22      29.93F                  
FAITH            N/A     64  54  69 S14       30.06S                  
MOBRIDGE       MOCLDY    63  51  65 E9        30.01S                  
$$
 
SDZ012>016-024>037-041>051-057-063-072>074-150600-
SOUTHWEST AND SOUTH CENTRAL SOUTH DAKOTA
  
CITY           SKY/WX    TMP DP  RH WIND       PRES   REMARKS
RAPID CTY ARPT TSTM      59  57  93 VRB5      30.11F                  
PIERRE         MOCLDY    64  56  75 N6        30.01S                  
CUSTER         CLOUDY    55  45  68 MISG      30.18F                  
ELLSWORTH AFB  LGT RAIN  60  60 100 SW3       30.10                   
PHILIP         CLOUDY    63  61  93 CALM      30.05R                  
PINE RIDGE     MOCLDY    59  59 100 VRB3      30.08R                  
SPEARFISH      FAIR      57  54  88 S13G18    30.07F                  
WINNER         CLOUDY    69  58  67 NE5       30.02R                  
$$
 
SDZ004>011-016>023-039-040-150600-
NORTHEAST SOUTH DAKOTA
  
CITY           SKY/WX    TMP DP  RH WIND       PRES   REMARKS
ABERDEEN       PTCLDY    62  57  83 N7        30.00F                  
WATERTOWN      MOCLDY    63  59  87 CALM      29.99S                  
BROOKINGS      CLOUDY    66  63  90 NE5       29.99R                  
SISSETON         N/A     64  57  78 N5        29.99R                  
$$
 
SDZ017-020-022-023-036>040-048>070-150600-
SOUTHEAST SOUTH DAKOTA
  
CITY           SKY/WX    TMP DP  RH WIND       PRES   REMARKS
SIOUX FALLS    MOCLDY    71  68  90 NE7       29.95R                  
HURON          CLOUDY    69  62  78 N9        29.97R                  
CHAMBERLAIN    MOCLDY    70  64  81 NE6       29.98F                  
MITCHELL       CLEAR     67  65  93 NW5       29.95R                  
YANKTON        PTCLDY    66  65  96 N6        29.96R                  
$$
 
ABBREVIATIONS USED IN REMARKS
   TC - TEMPERATURE IN CELSIUS
  WCI - WIND CHILL INDEX
   HX - HEAT INDEX
  VSB - VISIBILITY